Previsão horária em Cegled

Hoje, 27 Julho, Terça-feira

Tempo Temperatura Precipitação Vento Pressão Humidade
00:00 +26°C° 0.1 mm 2 m/s 751 mmHg 53%
01:00 +26°C° 0.1 mm 2 m/s 751 mmHg 55%
02:00 +25°C° 0.1 mm 2 m/s 751 mmHg 56%
03:00 +25°C° 0.1 mm 2 m/s 751 mmHg 57%
04:00 +24°C° 0.1 mm 2 m/s 751 mmHg 58%
05:00 +26°C° 0 mm 2 m/s 751 mmHg 54%
06:00 +27°C° 0 mm 3 m/s 751 mmHg 50%
07:00 +28°C° 0 mm 3 m/s 752 mmHg 46%
08:00 +30°C° 0 mm 4 m/s 752 mmHg 42%
09:00 +33°C° 0 mm 4 m/s 752 mmHg 38%
10:00 +35°C° 0 mm 5 m/s 752 mmHg 34%
11:00 +36°C° 0 mm 5 m/s 752 mmHg 31%
12:00 +38°C° 0 mm 6 m/s 752 mmHg 29%
13:00 +39°C° 0 mm 6 m/s 751 mmHg 27%
14:00 +39°C° 0 mm 6 m/s 751 mmHg 26%
15:00 +39°C° 0 mm 6 m/s 751 mmHg 25%
16:00 +40°C° 0 mm 6 m/s 751 mmHg 23%
17:00 +37°C° 0 mm 5 m/s 750 mmHg 27%
18:00 +35°C° 0 mm 3 m/s 750 mmHg 30%
19:00 +32°C° 0 mm 2 m/s 750 mmHg 34%
20:00 +31°C° 0 mm 2 m/s 750 mmHg 35%
21:00 +30°C° 0 mm 3 m/s 751 mmHg 37%
22:00 +29°C° 0 mm 3 m/s 751 mmHg 39%
23:00 +28°C° 0 mm 3 m/s 751 mmHg 40%

Amanhã, 28 Julho, Quarta-feira

Tempo Temperatura Precipitação Vento Pressão Humidade
00:00 +27°C° 0 mm 2 m/s 751 mmHg 41%
01:00 +26°C° 0 mm 2 m/s 751 mmHg 42%
02:00 +26°C° 0 mm 2 m/s 751 mmHg 44%
03:00 +26°C° 0 mm 2 m/s 751 mmHg 45%
04:00 +25°C° 0 mm 2 m/s 751 mmHg 47%
05:00 +27°C° 0 mm 2 m/s 751 mmHg 44%
06:00 +29°C° 0 mm 3 m/s 751 mmHg 41%
07:00 +30°C° 0 mm 3 m/s 751 mmHg 39%
08:00 +33°C° 0 mm 3 m/s 750 mmHg 34%
09:00 +35°C° 0 mm 4 m/s 750 mmHg 30%
10:00 +37°C° 0 mm 5 m/s 750 mmHg 25%
11:00 +39°C° 0 mm 5 m/s 750 mmHg 24%
12:00 +40°C° 0 mm 6 m/s 749 mmHg 22%
13:00 +41°C° 0 mm 7 m/s 749 mmHg 20%
14:00 +41°C° 0 mm 7 m/s 749 mmHg 20%
15:00 +41°C° 0 mm 7 m/s 748 mmHg 19%
16:00 +43°C° 0 mm 7 m/s 748 mmHg 19%
17:00 +40°C° 0 mm 6 m/s 748 mmHg 23%
18:00 +37°C° 0 mm 4 m/s 748 mmHg 26%
19:00 +35°C° 0 mm 3 m/s 748 mmHg 30%
20:00 +33°C° 0 mm 3 m/s 748 mmHg 34%
21:00 +30°C° 0 mm 3 m/s 749 mmHg 39%
22:00 +29°C° 0 mm 3 m/s 749 mmHg 44%
23:00 +28°C° 0 mm 3 m/s 749 mmHg 51%

Depois de amanhã, 29 Julho, Quinta-feira

Tempo Temperatura Precipitação Vento Pressão Humidade
00:00 +26°C° 0 mm 4 m/s 750 mmHg 58%
01:00 +25°C° 0 mm 4 m/s 750 mmHg 65%
02:00 +23°C° 0 mm 4 m/s 750 mmHg 69%
03:00 +23°C° 0 mm 4 m/s 750 mmHg 72%
04:00 +22°C° 0 mm 4 m/s 750 mmHg 76%
05:00 +23°C° 0 mm 4 m/s 750 mmHg 70%
06:00 +25°C° 0 mm 4 m/s 751 mmHg 63%
07:00 +26°C° 0 mm 4 m/s 751 mmHg 57%
08:00 +28°C° 0 mm 4 m/s 751 mmHg 49%
09:00 +30°C° 0 mm 4 m/s 751 mmHg 42%
10:00 +33°C° 0 mm 4 m/s 752 mmHg 35%
11:00 +34°C° 0 mm 4 m/s 751 mmHg 30%
12:00 +35°C° 0 mm 4 m/s 751 mmHg 25%
13:00 +37°C° 0 mm 4 m/s 751 mmHg 20%
14:00 +37°C° 0 mm 4 m/s 750 mmHg 19%
15:00 +37°C° 0 mm 4 m/s 750 mmHg 18%
16:00 +37°C° 0 mm 3 m/s 750 mmHg 17%
17:00 +35°C° 0 mm 3 m/s 750 mmHg 21%
18:00 +33°C° 0 mm 3 m/s 750 mmHg 25%
19:00 +30°C° 0 mm 3 m/s 750 mmHg 29%
20:00 +29°C° 0 mm 3 m/s 750 mmHg 33%
21:00 +28°C° 0 mm 3 m/s 750 mmHg 37%
22:00 +26°C° 0 mm 3 m/s 750 mmHg 41%
23:00 +26°C° 0 mm 3 m/s 750 mmHg 42%

30 Julho, Sexta-feira

Tempo Temperatura Precipitação Vento Pressão Humidade
00:00 +25°C° 0 mm 3 m/s 749 mmHg 43%
01:00 +25°C° 0 mm 3 m/s 749 mmHg 45%
02:00 +24°C° 0 mm 2 m/s 749 mmHg 46%
03:00 +24°C° 0 mm 2 m/s 749 mmHg 47%
04:00 +23°C° 0 mm 2 m/s 749 mmHg 48%
05:00 +25°C° 0 mm 2 m/s 749 mmHg 46%
06:00 +27°C° 0 mm 2 m/s 749 mmHg 43%
07:00 +29°C° 0 mm 1 m/s 749 mmHg 40%
08:00 +31°C° 0 mm 2 m/s 749 mmHg 34%
09:00 +34°C° 0 mm 2 m/s 749 mmHg 29%
10:00 +37°C° 0 mm 2 m/s 749 mmHg 24%
11:00 +38°C° 0 mm 2 m/s 748 mmHg 22%
12:00 +39°C° 0 mm 3 m/s 747 mmHg 20%
13:00 +42°C° 0 mm 3 m/s 747 mmHg 18%
14:00 +40°C° 0 mm 3 m/s 746 mmHg 19%
15:00 +40°C° 0 mm 3 m/s 746 mmHg 20%
16:00 +40°C° 0 mm 3 m/s 745 mmHg 21%
17:00 +37°C° 0.1 mm 3 m/s 745 mmHg 27%
18:00 +35°C° 0.1 mm 3 m/s 745 mmHg 33%
19:00 +31°C° 0.1 mm 3 m/s 745 mmHg 39%
20:00 +29°C° 0.1 mm 3 m/s 745 mmHg 45%
21:00 +28°C° 0.1 mm 3 m/s 745 mmHg 52%
22:00 +26°C° 0.1 mm 3 m/s 745 mmHg 58%
23:00 +25°C° 0.1 mm 3 m/s 745 mmHg 65%

31 Julho, Sábado

Tempo Temperatura Precipitação Vento Pressão Humidade
00:00 +24°C° 0.1 mm 3 m/s 746 mmHg 71%
01:00 +22°C° 0.1 mm 4 m/s 746 mmHg 78%
02:00 +22°C° 0 mm 3 m/s 746 mmHg 80%
03:00 +22°C° 0 mm 3 m/s 746 mmHg 81%
04:00 +21°C° 0 mm 2 m/s 746 mmHg 83%
05:00 +24°C° 0 mm 2 m/s 746 mmHg 76%
06:00 +26°C° 0 mm 2 m/s 746 mmHg 69%
07:00 +27°C° 0 mm 3 m/s 747 mmHg 62%
08:00 +29°C° 0 mm 3 m/s 747 mmHg 54%
09:00 +31°C° 0 mm 3 m/s 747 mmHg 47%
10:00 +34°C° 0 mm 4 m/s 747 mmHg 39%
11:00 +35°C° 0 mm 4 m/s 747 mmHg 36%
12:00 +36°C° 0 mm 4 m/s 746 mmHg 33%
13:00 +37°C° 0 mm 4 m/s 746 mmHg 29%
14:00 +37°C° 0 mm 4 m/s 746 mmHg 29%
15:00 +36°C° 0 mm 5 m/s 746 mmHg 29%
16:00 +36°C° 0 mm 5 m/s 746 mmHg 28%
17:00 +34°C° 0 mm 5 m/s 746 mmHg 32%
18:00 +33°C° 0 mm 5 m/s 746 mmHg 36%
19:00 +30°C° 0 mm 5 m/s 746 mmHg 40%
20:00 +28°C° 0.1 mm 5 m/s 746 mmHg 47%
21:00 +26°C° 0.1 mm 4 m/s 747 mmHg 55%
22:00 +23°C° 0.1 mm 4 m/s 747 mmHg 63%
23:00 +22°C° 0.1 mm 4 m/s 748 mmHg 67%

1 Agosto, Domingo

Tempo Temperatura Precipitação Vento Pressão Humidade
00:00 +21°C° 0.1 mm 3 m/s 748 mmHg 72%
01:00 +20°C° 0.1 mm 3 m/s 748 mmHg 77%
02:00 +19°C° 0.1 mm 3 m/s 748 mmHg 80%
03:00 +19°C° 0.1 mm 2 m/s 748 mmHg 82%
04:00 +19°C° 0.1 mm 2 m/s 749 mmHg 85%
05:00 +20°C° 0.1 mm 2 m/s 749 mmHg 79%
06:00 +23°C° 0.1 mm 2 m/s 749 mmHg 74%
07:00 +24°C° 0.1 mm 2 m/s 749 mmHg 69%
08:00 +26°C° 0.1 mm 2 m/s 749 mmHg 61%
09:00 +28°C° 0.1 mm 2 m/s 749 mmHg 53%
10:00 +30°C° 0.1 mm 1 m/s 749 mmHg 45%
11:00 +31°C° 0 mm 1 m/s 748 mmHg 42%
12:00 +32°C° 0 mm 1 m/s 748 mmHg 39%
13:00 +33°C° 0 mm 1 m/s 747 mmHg 35%
14:00 +33°C° 0.4 mm 3 m/s 747 mmHg 39%
15:00 +32°C° 0.4 mm 4 m/s 746 mmHg 42%
16:00 +32°C° 0.4 mm 5 m/s 746 mmHg 45%
17:00 +28°C° 0.6 mm 6 m/s 746 mmHg 56%
18:00 +24°C° 0.6 mm 7 m/s 746 mmHg 66%
19:00 +22°C° 0.6 mm 8 m/s 747 mmHg 76%
20:00 +20°C° 0 mm 7 m/s 747 mmHg 78%
21:00 +18°C° 0 mm 7 m/s 748 mmHg 79%
22:00 +17°C° 0 mm 6 m/s 748 mmHg 81%
23:00 +16°C° 0 mm 6 m/s 748 mmHg 80%
Mostrar mais

Necessitamos do seu Consentimento

A Meteoprog e os seus Fornecedores de Serviços podem armazenar e aceder a dados pessoais como cookies, identificadores do dispositivo ou outras tecnologias semelhantes existentes no seu dispositivo e processar estes dados para personalizar conteúdos e anúncios, assim como funcionalidades nas redes sociais e análise de tráfego.

  • Armazenar e/ou aceder a informações no seu dispositivo

    Os cookies, identificadores do dispositivo ou outras informações podem ser armazenados ou acedidos no seu dispositivo, para os fins acima indicados.

  • Anúncios e conteúdos personalizados, medição de anúncios e conteúdos, dados sobre o público-alvo e desenvolvimento de produtos

    Os anúncios e os conteúdos podem ser personalizados com base num perfil. Podem ser adicionados dados adicionais para uma maior personalização dos anúncios e dos conteúdos. A eficácia dos anúncios e dos conteúdos pode ser medida. Podem ser obtidas informações sobre o público que visualizou os anúncios e os conteúdos. Estes dados podem ser usados para desenvolver ou melhorar sistemas, softwares ou a experiência do utilizador.

Ao clicar em "Eu concordo”, permitirá o uso de cookies, identificadores do dispositivo e web beacons mencionados ou outras tecnologias semelhantes. As configurações do navegador do seu dispositivo podem ser alteradas.

Para certos fins, podem ser invocados interesses legítimos ao invés de consentimento. Pode ler mais informação sobre este assunto na nossa Política de Privacidade e Cookies.